Naples, Italy

9:17 AM CEST on July 27, 2016 (GMT +0200)
Capodichino Mil

Weather History for LIRN - April, 2012

Change the Weather History Date:

Thursday, April 26, 2012

  Actual Average Record
Temperature  
Mean Temperature 58 °F -  
Max Temperature 69 °F 72 °F 78 °F (2013)
Min Temperature 46 °F 53 °F 39 °F (2016)
Degree Days  
Heating Degree Days 8    
Growing Degree Days 8 (Base 50)    
Moisture  
Dew Point 42 °F    
Average Humidity 58    
Maximum Humidity 87    
Minimum Humidity 23    
Precipitation  
Precipitation 0.00 in 0.07 in - ()
Sea Level Pressure  
Sea Level Pressure 30.12 in    
Wind  
Wind Speed 3 mph ()    
Max Wind Speed 10 mph    
Max Gust Speed -    
Averages and records for this station are not official NWS values.
T = Trace of Precipitation, MM = Missing Value Source: Averaged Metar Reports

Daily Weather History Graph

Daily Weather History Graph

Search for Another Location

Airport or City:

Trip Planner

Search our weather history database for the weather conditions in past years. The results will help you decide how hot, cold, wet, or windy it might be!

Date:

Astronomy

Apr. 26, 2012 Rise Set
Actual Time 6:07 AM CEST 7:54 PM CEST
Civil Twilight 5:38 AM CEST 8:23 PM CEST
Nautical Twilight 5:02 AM CEST 8:59 PM CEST
Astronomical Twilight 4:24 AM CEST 9:37 PM CEST
Moon 9:29 AM CEST (4/26) No Moon Set
Length of Visible Light 14h 45m
Length of Day
13h 46m
Waxing Crescent, 22% of the Moon is Illuminated
Apr 26
Waxing Crescent
Apr 29
First Quarter
May 6
Full
May 12
Last Quarter
May 21
New

Hourly Weather History & Observations

Time (CEST) Temp. Dew Point Humidity Pressure Visibility Wind Dir Wind Speed Gust Speed Precip Events Conditions
12:20 AM 53.6 °F 46.4 °F 77% 30.09 in - Calm Calm - N/A   Clear
12:50 AM 51.8 °F 44.6 °F 76% 30.09 in - West 2.3 mph - N/A   Clear
1:20 AM 51.8 °F 46.4 °F 82% 30.09 in - Calm Calm - N/A   Clear
1:50 AM 50.0 °F 44.6 °F 82% 30.09 in - Calm Calm - N/A   Clear
2:50 AM 50.0 °F 44.6 °F 82% 30.06 in - Variable 2.3 mph - N/A   Clear
3:20 AM 50.0 °F 44.6 °F 82% 30.09 in - Calm Calm - N/A   Clear
3:50 AM 48.2 °F 44.6 °F 87% 30.09 in - Calm Calm - N/A   Clear
4:20 AM 48.2 °F 44.6 °F 87% 30.09 in - Variable 1.2 mph - N/A   Clear
4:50 AM 48.2 °F 44.6 °F 87% 30.09 in - NNE 2.3 mph - N/A   Clear
5:20 AM 46.4 °F 42.8 °F 87% 30.09 in - NNE 2.3 mph - N/A   Clear
5:50 AM 46.4 °F 42.8 °F 87% 30.09 in - NNW 2.3 mph - N/A   Clear
6:20 AM 48.2 °F 44.6 °F 87% 30.12 in - WNW 2.3 mph - N/A   Clear
6:50 AM 48.2 °F 44.6 °F 87% 30.12 in - Variable 1.2 mph - N/A   Clear
7:20 AM 51.8 °F 46.4 °F 82% 30.12 in - Variable 2.3 mph - N/A   Clear
7:50 AM 53.6 °F 46.4 °F 77% 30.12 in - NE 3.5 mph - N/A   Clear
8:20 AM 55.4 °F 48.2 °F 77% 30.12 in - NNE 3.5 mph - N/A   Clear
8:50 AM 57.2 °F 50.0 °F 77% 30.12 in - Variable 2.3 mph - N/A   Clear
9:20 AM 59.0 °F 48.2 °F 67% 30.15 in - Variable 2.3 mph - N/A   Clear
9:50 AM 62.6 °F 48.2 °F 59% 30.15 in - Variable 1.2 mph - N/A   Clear
10:20 AM 62.6 °F 46.4 °F 55% 30.15 in - Variable 2.3 mph - N/A   Clear
10:50 AM 64.4 °F 41.0 °F 42% 30.15 in - WSW 3.5 mph - N/A   Clear
11:20 AM 66.2 °F 35.6 °F 32% 30.15 in - WSW 5.8 mph - N/A   Clear
11:50 AM 68.0 °F 28.4 °F 23% 30.15 in - South 4.6 mph - N/A   Clear
12:20 PM 66.2 °F 33.8 °F 30% 30.15 in - SSW 5.8 mph - N/A   Clear
12:50 PM 68.0 °F 35.6 °F 30% 30.15 in - SSW 6.9 mph - N/A   Clear
1:20 PM 68.0 °F 37.4 °F 33% 30.15 in - SSW 6.9 mph - N/A   Clear
1:50 PM 68.0 °F 35.6 °F 30% 30.15 in - South 8.1 mph - N/A   Clear
2:20 PM 68.0 °F 35.6 °F 30% 30.12 in - South 9.2 mph - N/A   Clear
2:50 PM 68.0 °F 33.8 °F 28% 30.12 in - South 10.4 mph - N/A   Clear
3:20 PM 68.0 °F 35.6 °F 30% 30.12 in - South 6.9 mph - N/A   Clear
3:50 PM 68.0 °F 37.4 °F 33% 30.12 in - SSW 8.1 mph - N/A   Clear
4:20 PM 69.8 °F 33.8 °F 27% 30.12 in - South 9.2 mph - N/A   Clear
4:50 PM 69.8 °F 35.6 °F 28% 30.12 in - South 8.1 mph - N/A   Clear
5:20 PM 69.8 °F 37.4 °F 31% 30.12 in - South 8.1 mph - N/A   Clear
5:50 PM 68.0 °F 33.8 °F 28% 30.12 in - South 9.2 mph - N/A   Clear
6:20 PM 66.2 °F 39.2 °F 37% 30.12 in - South 8.1 mph - N/A   Clear
6:50 PM 64.4 °F 41.0 °F 42% 30.12 in - South 8.1 mph - N/A   Clear
7:20 PM 62.6 °F 42.8 °F 48% 30.12 in - South 8.1 mph - N/A   Clear
7:50 PM 62.6 °F 46.4 °F 55% 30.12 in - South 5.8 mph - N/A   Clear
8:20 PM 60.8 °F 46.4 °F 59% 30.12 in - South 3.5 mph - N/A   Clear
8:50 PM 60.8 °F 46.4 °F 59% 30.12 in - South 2.3 mph - N/A   Clear
9:20 PM 60.8 °F 46.4 °F 59% 30.15 in - Variable 2.3 mph - N/A   Clear
9:50 PM 60.8 °F 46.4 °F 59% 30.15 in - Variable 2.3 mph - N/A   Clear
10:20 PM 59.0 °F 46.4 °F 63% 30.15 in - North 2.3 mph - N/A   Clear
10:50 PM 59.0 °F 46.4 °F 63% 30.15 in - North 3.5 mph - N/A   Clear
11:20 PM 59.0 °F 46.4 °F 63% 30.15 in - North 2.3 mph - N/A   Clear
11:50 PM 59.0 °F 46.4 °F 63% 30.15 in - Variable 2.3 mph - N/A   Clear